Weather in Geneva

Switzerland     46°12′12″N   6°08′24″E
temp.,
°C
wind,
m/s
gust,
m/s
humid.,
%
clouds,
%
prec.,
mm/h
press.,
hPa
HPBL,
m
21 april, wed
wed2123:00+6ese0174100 0.0 101528
02:00+5ssw2279100 0.0 101756
05:00+4s228296 0.0 101754
08:00+7e118062 0.0 101788
11:00+11n116772 0.1 1016635
14:00+13ene115875 0.8 10151088
17:00+14wnw115198 0.5 10141322
20:00+10nnw116936 0.9 101539
22 april, thu
thu2223:00+7s11835 0.3 101823
02:00+5s11875 0.3 101837
05:00+4sse11885 0.0 101932
08:00+6ne11845 0.0 102098
11:00+11nne23713 0.0 1019604
14:00+14ne45561 0.0 1018894
17:00+16ne56487 0.0 10171140
20:00+12ne712700 0.1 1018529
23 april, fri
fri2323:00+9nne611790 0.0 1020451
02:00+7ne598524 0.0 1022370
05:00+5ne467814 0.0 1023218
08:00+5nne467629 0.0 1024437
11:00+9nne45650 0.0 1023714
14:00+13nne56540 0.0 1022940
17:00+14nne55480 0.0 10211024
20:00+11nne47630 0.0 1021192
24 april, sat
sat2423:00+7ne24710 0.0 1023125
02:00+5ne23800 0.0 102495
05:00+4ne12850 0.0 102578
08:00+6ne12810 0.0 1025183
11:00+10nne22685 0.0 1023435
14:00+15nne22584 0.0 1021502
17:00+17nne11495 0.0 1019510
20:00+13nne226773 0.0 101924
25 april, sun
sun2523:00+9nne137698 0.0 102169
02:00+7ne2379100 0.0 102274
05:00+6ne1285100 0.0 102175
08:00+7ne2483100 0.0 1021226
11:00+11ne1271100 0.0 1019400
14:00+14nne2264100 0.0 1017434
17:00+15nne2263100 0.0 1015325
20:00+13ssw1179100 0.1 101531